Wind_Speed
57 58 63 63 66 63 64 67 63 63 65 70 53 54 59 56 51 53 51 51 50 50 48 48 44 42 41 38 38 35 35 29 26 27 27 26 29 33 26 31 29 32 32
56 52 56 60 61 60 58 58 59 61 58 79 78 57 57 55 53 50 50 51 51 49 47 46 44 42 40 36 35 34 35 31 28 29 32 31 29 34 26 35 33 34 33
58 54 52 57 62 60 60 58 58 65 57 28 36 51 54 51 50 49 49 49 52 51 50 46 44 42 40 37 36 32 32 31 28 28 30 34 38 34 39 35 35 37 33
54 53 49 51 56 62 63 67 69 49 43 46 48 52 53 53 52 53 54 52 49 48 47 45 43 41 38 35 35 34 34 31 27 27 30 32 35 39 40 42 37 36 32
47 51 49 47 53 57 64 69 53 51 59 59 57 52 53 54 53 54 54 53 51 47 45 45 43 41 38 36 35 35 33 31 28 28 30 31 32 33 35 38 39 36 30
55 50 50 47 55 56 61 65 66 66 62 61 52 49 48 45 42 46 45 45 47 47 46 44 43 38 37 36 34 33 32 31 31 30 27 28 30 28 29 35 33 31 33
52 50 50 50 51 56 63 73 75 70 68 64 57 56 50 47 39 41 41 39 40 43 44 44 43 40 38 36 34 33 32 30 28 27 24 27 26 25 21 24 27 34 29
59 54 52 54 56 55 61 74 78 74 69 67 55 53 51 49 36 41 41 39 37 34 33 35 36 37 36 36 34 33 31 29 28 24 21 25 25 25 19 20 28 21 19
66 60 56 54 56 56 61 60 77 80 73 68 61 56 52 47 41 42 40 38 36 33 30 32 34 35 36 35 33 30 28 27 24 23 22 24 24 23 22 19 17 18 15
64 68 65 58 53 58 54 66 61 71 78 68 63 59 52 43 47 42 41 38 37 34 31 31 30 31 32 31 29 26 24 24 23 24 22 23 24 22 20 20 22 15 11
71 67 71 70 62 60 60 55 62 57 63 65 62 57 54 50 51 44 43 40 38 36 34 31 31 31 30 29 26 24 24 24 24 23 21 20 22 22 21 17 19 17 18
34 68 70 73 71 64 59 60 52 61 60 63 62 59 56 52 53 46 45 42 41 39 37 36 34 32 30 28 27 26 25 23 22 24 21 19 21 22 20 21 19 18 16
35 37 68 72 72 71 64 62 56 60 58 67 67 61 58 57 49 47 46 43 41 37 36 40 37 34 33 31 31 28 25 24 22 23 23 19 20 20 21 22 23 19 17
30 35 39 66 70 70 63 61 62 58 55 65 68 62 59 54 53 48 44 44 39 40 36 37 39 37 36 36 33 30 25 23 22 22 20 21 22 21 22 25 32 20 20
22 28 37 41 63 68 68 61 58 57 54 50 58 51 49 46 43 48 50 48 47 42 42 37 38 37 34 35 34 32 30 28 25 24 21 23 25 23 25 29 24 19 24
12 26 26 30 40 54 63 64 60 56 59 56 55 54 51 49 47 46 47 51 48 46 45 44 41 39 36 34 36 34 34 36 30 27 26 26 28 26 27 34 17 21 20
6 6 16 25 36 34 41 46 61 63 57 61 56 52 52 51 47 46 42 47 49 48 45 46 42 40 39 36 38 38 38 34 30 31 33 33 29 30 29 37 15 22 20
21 21 17 17 20 28 36 39 46 63 71 62 61 57 58 55 49 48 49 47 46 47 45 48 44 43 40 38 38 40 42 40 36 35 35 37 36 32 31 25 14 19 18
14 11 8 8 11 16 22 29 38 45 64 68 62 62 57 52 51 48 49 48 47 44 45 43 43 45 40 41 40 41 42 40 39 38 37 37 35 30 29 25 19 20 19
20 16 9 1 7 14 17 19 22 37 58 66 67 61 59 58 54 49 47 49 47 46 46 46 45 42 40 40 41 39 39 40 43 41 41 35 31 30 32 22 22 23 22
21 18 16 13 7 2 7 8 13 17 22 34 59 60 54 53 52 51 49 50 49 48 48 44 45 47 46 43 41 40 41 40 39 41 41 27 24 33 27 27 26 24 22
31 30 25 18 13 11 11 9 7 10 16 29 47 51 47 49 51 51 48 43 40 41 43 43 46 46 46 44 42 40 38 36 33 35 30 23 35 28 23 21 22 27 29
28 28 28 23 14 11 9 10 10 10 12 20 40 43 40 39 38 38 41 42 43 45 45 41 39 40 43 41 42 43 40 37 37 32 27 29 23 17 20 21 21 19 21
27 29 29 30 30 21 13 11 14 14 12 12 16 23 28 29 28 29 31 31 32 33 35 34 30 28 30 31 33 35 38 39 33 25 26 25 23 19 21 20 18 18 17
34 28 26 30 31 26 22 17 16 15 14 14 15 18 21 21 22 24 25 26 29 28 28 31 27 27 31 35 37 37 34 31 23 23 26 23 22 22 23 22 18 18 20
30 25 36 29 28 29 27 22 18 14 13 13 13 16 17 19 20 22 23 26 26 25 27 28 32 37 37 35 34 31 28 26 26 23 19 17 20 21 22 22 22 20 19
Wind_Direction
252 247 241 241 238 235 235 236 237 239 241 246 237 242 248 252 250 251 254 256 257 257 259 262 263 266 269 270 270 273 277 276 271 275 275 275 267 259 269 274 275 282 282
246 244 242 234 234 232 233 234 235 236 238 233 236 237 243 245 249 251 254 256 258 257 257 258 261 262 265 267 269 268 271 269 268 269 270 274 273 268 271 274 275 280 287
245 246 240 236 231 229 231 231 241 222 226 255 232 241 247 251 251 251 252 253 255 254 257 258 260 262 264 266 266 264 262 266 271 275 276 274 273 270 266 273 273 275 289
246 245 243 238 234 230 228 232 239 236 239 242 236 239 245 250 253 256 257 256 254 254 254 257 258 259 259 258 258 257 260 264 268 272 278 289 289 281 267 265 276 279 288
240 243 244 242 238 233 229 235 241 234 233 232 238 238 244 249 255 256 257 255 254 252 252 253 254 255 256 254 254 253 257 261 266 271 278 288 293 288 271 264 270 276 276
241 235 238 238 236 235 229 229 233 236 238 234 237 240 243 246 253 255 256 256 253 251 247 248 250 249 250 249 251 254 257 261 264 271 278 283 291 289 276 272 284 273 276
237 235 231 234 236 233 228 227 225 228 234 235 232 239 237 242 251 253 255 257 254 245 243 243 244 245 245 246 247 250 253 257 260 268 275 278 292 295 298 290 282 270 267
238 236 229 227 231 238 232 226 230 227 230 235 237 238 240 240 245 246 254 256 249 240 237 238 239 241 240 242 243 246 247 251 255 265 277 284 294 302 289 279 281 265 256
236 236 230 227 229 229 232 234 229 230 228 233 238 239 237 237 239 241 245 246 243 236 232 231 232 235 238 238 238 241 245 250 258 271 279 281 293 293 294 274 266 248 273
235 236 236 232 228 227 231 227 230 230 229 231 236 236 234 229 236 234 237 241 236 232 228 229 230 232 234 234 237 240 249 256 265 272 279 277 285 290 291 280 272 286 258
238 233 233 237 228 230 230 229 229 231 227 226 227 225 225 224 231 234 235 235 235 229 227 227 230 232 235 235 235 242 251 261 267 271 276 275 282 285 291 285 263 277 282
251 232 228 230 234 229 231 228 236 231 222 229 230 225 222 225 232 232 232 232 232 229 226 226 226 229 232 234 240 243 247 253 262 270 272 272 280 286 295 299 288 262 279
255 245 227 227 227 234 229 229 228 223 224 228 232 226 228 232 225 230 229 228 229 231 233 227 226 229 232 231 236 237 239 247 256 265 272 272 276 293 294 290 294 275 236
256 241 227 225 225 226 224 226 224 228 236 221 221 221 233 235 237 231 233 234 233 229 236 234 229 225 228 232 233 236 237 245 256 264 289 281 274 288 300 293 297 265 224
261 235 220 225 223 224 226 226 225 225 226 232 227 225 230 231 231 232 238 238 240 231 234 238 235 228 228 232 236 236 244 251 252 259 291 284 274 284 296 301 284 264 207
288 231 229 224 213 218 225 226 228 225 222 222 221 223 225 227 231 233 236 229 234 232 234 241 238 233 224 231 235 241 245 252 259 271 276 286 281 282 292 285 271 204 206
32 180 222 216 208 207 220 230 231 229 224 221 221 221 222 222 226 228 231 232 229 235 235 239 240 233 234 229 232 237 242 254 260 268 269 289 282 281 287 294 247 205 215
79 106 128 151 180 205 221 235 237 228 227 226 221 222 221 223 227 228 230 233 235 232 235 238 235 232 234 233 235 242 251 256 265 266 273 279 279 277 279 273 212 215 217
58 86 125 172 203 221 229 231 228 226 225 225 223 221 220 223 223 225 229 229 234 230 229 228 231 235 236 240 242 248 251 257 264 264 275 275 271 273 280 214 224 225 221
56 60 65 103 240 244 243 245 235 229 227 224 223 220 222 223 226 227 228 230 230 229 230 233 236 238 242 242 242 248 251 253 257 260 271 266 263 263 257 231 229 222 223
44 47 55 61 63 205 198 203 224 222 223 223 219 216 221 226 227 228 229 231 232 234 234 234 234 235 237 233 238 242 244 246 250 256 260 243 238 257 258 228 220 220 214
55 55 49 39 33 41 54 94 144 200 209 210 205 212 219 225 231 232 230 224 221 225 227 232 234 234 235 234 246 244 239 235 239 234 219 229 252 243 215 197 225 218 223
47 46 52 51 44 53 68 83 98 125 163 201 211 213 218 228 236 235 233 234 233 230 233 236 238 236 236 235 233 237 229 220 215 208 211 234 227 202 205 217 210 204 215
52 44 49 53 62 69 88 116 113 124 141 159 184 203 216 222 221 218 217 214 212 216 219 214 213 225 231 219 198 188 194 200 196 204 215 217 199 200 217 217 209 215 212
41 58 46 54 57 65 77 113 134 149 148 153 165 178 176 180 187 186 189 194 194 193 202 209 220 203 190 184 180 182 185 189 203 210 210 209 225 217 198 195 206 217 213
27 45 52 54 62 62 69 96 118 128 132 148 160 185 189 192 197 203 204 205 207 201 191 188 186 184 180 176 176 176 187 199 199 187 194 210 193 191 196 200 204 208 213
Height
5629 5635 5640 5647 5656 5664 5669 5675 5683 5689 5692 5693 5691 5700 5710 5716 5722 5728 5730 5733 5738 5742 5746 5749 5753 5754 5756 5760 5761 5761 5762 5763 5762 5763 5762 5760 5758 5757 5756 5757 5757 5757 5757
5614 5619 5624 5630 5639 5647 5654 5662 5667 5671 5679 5659 5662 5688 5698 5704 5710 5715 5718 5721 5726 5731 5734 5737 5742 5745 5748 5750 5750 5753 5755 5755 5755 5755 5754 5752 5752 5751 5749 5751 5751 5750 5751
5600 5603 5608 5615 5622 5632 5640 5647 5651 5634 5649 5626 5658 5678 5686 5692 5698 5704 5708 5712 5715 5720 5723 5727 5731 5736 5739 5741 5743 5745 5746 5747 5748 5746 5745 5744 5743 5743 5743 5743 5743 5744 5742
5587 5591 5596 5601 5609 5616 5624 5630 5615 5625 5641 5649 5660 5670 5676 5682 5688 5693 5696 5700 5705 5708 5712 5716 5721 5725 5729 5733 5734 5736 5737 5739 5739 5739 5738 5737 5736 5735 5735 5735 5736 5735 5734
5574 5578 5583 5589 5595 5601 5609 5614 5621 5629 5640 5647 5655 5661 5667 5673 5678 5682 5684 5689 5693 5697 5702 5707 5711 5715 5720 5723 5726 5728 5729 5731 5732 5733 5732 5731 5729 5726 5725 5727 5728 5728 5727
5559 5565 5570 5576 5581 5589 5595 5604 5613 5621 5630 5635 5643 5650 5658 5663 5667 5671 5673 5677 5681 5686 5692 5696 5701 5707 5710 5714 5717 5718 5721 5722 5724 5725 5726 5725 5723 5721 5719 5720 5720 5721 5721
5542 5549 5555 5562 5568 5573 5581 5589 5597 5607 5616 5624 5632 5639 5647 5651 5658 5661 5663 5667 5671 5675 5680 5686 5692 5696 5701 5705 5708 5710 5713 5715 5717 5719 5720 5720 5719 5715 5715 5714 5714 5714 5715
5525 5532 5538 5546 5554 5558 5563 5572 5584 5592 5602 5611 5620 5627 5635 5640 5648 5652 5655 5659 5662 5666 5671 5676 5682 5687 5691 5695 5699 5702 5705 5708 5710 5713 5714 5713 5712 5710 5709 5708 5707 5707 5707
5508 5516 5523 5530 5539 5547 5548 5557 5566 5576 5588 5597 5607 5614 5620 5630 5638 5643 5647 5651 5655 5659 5662 5667 5672 5677 5682 5686 5691 5695 5698 5700 5703 5705 5707 5708 5707 5706 5704 5703 5702 5700 5700
5485 5499 5507 5515 5523 5531 5536 5544 5553 5562 5572 5583 5593 5603 5611 5621 5627 5633 5638 5642 5647 5651 5655 5660 5665 5669 5674 5679 5684 5688 5691 5693 5696 5699 5701 5702 5702 5702 5701 5698 5697 5697 5695
5462 5475 5486 5498 5508 5518 5527 5533 5542 5553 5562 5570 5579 5588 5598 5608 5615 5623 5629 5634 5638 5643 5648 5652 5658 5663 5668 5673 5677 5681 5684 5687 5690 5692 5694 5695 5696 5695 5695 5693 5692 5692 5690
5440 5448 5464 5476 5490 5503 5513 5524 5532 5541 5550 5561 5569 5576 5585 5594 5603 5612 5619 5625 5630 5636 5641 5645 5651 5656 5661 5666 5670 5675 5678 5681 5683 5685 5687 5689 5689 5688 5688 5687 5684 5684 5684
5427 5430 5441 5455 5469 5483 5499 5510 5520 5532 5541 5550 5557 5567 5574 5583 5592 5602 5609 5616 5622 5628 5633 5637 5642 5649 5655 5659 5664 5668 5671 5675 5677 5679 5680 5682 5684 5683 5681 5680 5678 5677 5678
5414 5417 5424 5436 5451 5465 5482 5495 5508 5519 5530 5539 5547 5556 5565 5574 5583 5592 5599 5606 5613 5620 5625 5629 5633 5639 5646 5652 5656 5661 5665 5668 5670 5672 5673 5676 5677 5677 5677 5675 5675 5673 5673
5404 5409 5417 5424 5436 5451 5467 5482 5496 5508 5518 5526 5537 5547 5556 5564 5572 5580 5589 5596 5603 5609 5614 5619 5624 5630 5636 5643 5648 5653 5657 5660 5663 5665 5667 5669 5670 5671 5670 5668 5667 5667 5669
5399 5403 5410 5419 5428 5442 5455 5471 5483 5495 5505 5515 5525 5535 5544 5553 5561 5569 5576 5585 5592 5600 5605 5611 5616 5621 5626 5633 5639 5644 5649 5652 5656 5658 5660 5662 5663 5664 5663 5661 5662 5662 5666
5401 5402 5409 5417 5429 5440 5450 5460 5470 5481 5492 5503 5514 5524 5532 5542 5550 5559 5566 5576 5584 5590 5595 5602 5607 5612 5618 5625 5630 5636 5640 5644 5647 5650 5653 5655 5657 5658 5657 5652 5654 5657 5662
5414 5415 5418 5424 5431 5439 5446 5452 5455 5463 5476 5489 5501 5513 5522 5531 5539 5550 5558 5566 5573 5580 5585 5593 5598 5604 5609 5616 5622 5627 5631 5636 5639 5642 5644 5647 5649 5652 5652 5649 5651 5654 5658
5425 5426 5428 5431 5434 5437 5441 5443 5447 5452 5461 5474 5487 5497 5508 5519 5531 5540 5548 5557 5563 5570 5576 5583 5588 5595 5601 5606 5612 5617 5622 5627 5631 5634 5636 5639 5642 5646 5647 5646 5649 5652 5655
5435 5433 5433 5433 5434 5435 5436 5437 5438 5442 5449 5461 5473 5488 5499 5511 5522 5531 5539 5547 5554 5562 5568 5574 5580 5587 5592 5596 5601 5605 5612 5617 5622 5625 5628 5632 5635 5637 5637 5639 5644 5648 5651
5444 5441 5440 5438 5436 5434 5433 5433 5434 5437 5442 5449 5462 5480 5492 5504 5513 5521 5530 5539 5545 5552 5559 5565 5569 5575 5580 5584 5589 5596 5602 5608 5613 5617 5620 5624 5626 5628 5629 5632 5638 5643 5647
5453 5448 5444 5440 5437 5435 5433 5433 5435 5439 5444 5452 5463 5476 5488 5495 5504 5513 5521 5529 5535 5541 5547 5553 5559 5565 5569 5574 5581 5587 5594 5600 5604 5609 5613 5616 5620 5620 5625 5630 5635 5638 5640
5463 5458 5451 5446 5441 5439 5439 5440 5442 5446 5450 5456 5464 5474 5483 5491 5498 5504 5511 5518 5524 5530 5536 5543 5549 5554 5558 5563 5570 5576 5584 5592 5597 5600 5606 5612 5613 5617 5623 5626 5631 5634 5638
5470 5465 5460 5454 5449 5447 5447 5449 5451 5454 5458 5462 5467 5474 5481 5486 5491 5496 5502 5508 5514 5520 5527 5535 5540 5545 5550 5553 5559 5567 5576 5584 5589 5595 5601 5605 5611 5617 5621 5625 5627 5630 5633
5479 5474 5471 5465 5461 5458 5457 5458 5460 5462 5464 5468 5472 5477 5481 5485 5489 5494 5499 5505 5511 5517 5524 5530 5535 5540 5545 5552 5559 5567 5574 5581 5588 5592 5598 5603 5606 5611 5617 5621 5622 5627 5631
5492 5486 5480 5477 5473 5471 5468 5468 5469 5470 5471 5474 5476 5480 5483 5487 5490 5494 5499 5504 5510 5515 5521 5526 5532 5538 5545 5551 5557 5565 5571 5578 5584 5591 5597 5602 5605 5610 5613 5617 5621 5625 5628